Regional Weather Roundup
Issued by NWS Newport/Morehead, NC

Current Version | Previous Version | Graphics & Text | Print | Product List | Glossary Off
Versions: 1 2 3 4 5 6 7 8 9 10 11 12 13 14 15 16 17 18 19 20 21 22 23 24 25 26 27 28 29 30 31 32 33 34 35 36 37 38 39 40 41 42 43 44 45 46 47 48 49 50
000 ASUS42 KMHX 012125 RWRMHX WEATHER ROUNDUP FOR EASTERN NORTH CAROLINA NATIONAL WEATHER SERVICE NEWPORT/MOREHEAD CITY NC 500 PM EDT TUE SEP 01 2015 NOTE: "FAIR" INDICATES FEW OR NO CLOUDS BELOW 12,000 FEET WITH NO SIGNIFICANT WEATHER AND/OR OBSTRUCTIONS TO VISIBILITY NCZ015>017-031-032-045>047-102-103-012200- NORTH COAST CITY SKY/WX TMP DP RH WIND PRES REMARKS EDENTON SUNNY 83 69 63 W5 30.04S ELIZABETH CITY SUNNY 84 74 71 E10 30.03S KITTY HAWK CLEAR 85 72 65 NE3 30.03S MANTEO MOSUNNY 81 72 76 NE7 30.04S $$ NCZ045>047-081-094-103-104-012200- CENTRAL COAST CITY SKY/WX TMP DP RH WIND PRES REMARKS FRISCO CLOUDY 81 74 79 NE6 30.04R SWANQUARTER N/A 86 N/A N/A W7 30.00S $$ NCZ095-097-098-100-101-012200- SOUTHERN COAST CITY SKY/WX TMP DP RH WIND PRES REMARKS BEAUFORT MOSUNNY 83 74 74 SW10 30.04S CEDAR ISLAND N/A 84 N/A N/A NW5 30.09S JACKSONVILLE SUNNY 87 69 54 VRB5 30.04F PINEY ISLAND PTCLDY N/A N/A N/A W5 30.04S WILMINGTON MOSUNNY 86 74 67 SE6 30.05S $$ NCZ011>013-027>030-043-044-078>080-089-090>093-098-012200- COASTAL PLAIN CITY SKY/WX TMP DP RH WIND PRES REMARKS AHOSKIE SUNNY 83 70 63 CALM 30.04F CLINTON SUNNY 89 71 56 W3 30.05S ELIZABETHTOWN SUNNY 89 67 47 SW3 30.05S GOLDSBORO MOSUNNY 88 70 53 CALM 30.03F GREENVILLE SUNNY 86 70 58 CALM 30.06S HAVELOCK MOSUNNY 86 70 58 W5 30.05S KENANSVILLE N/A 84 69 60 CALM 30.06S KINSTON SUNNY 86 68 54 N3 30.05F NEW BERN MOSUNNY 87 71 58 W7 30.05S RICHLANDS SUNNY 86 66 51 N5 30.04F ROCKY MOUNT MOSUNNY 89 68 49 VRB5 30.04F WASHINGTON MOSUNNY 84 71 64 W3 30.04S WHITEVILLE MOSUNNY 89 69 51 CALM 30.04F $$ AMZ130-135-150-152-154-156-158-170-250-252-270-ANZ085-086-088-633-658-670-012200- MARINE OBSERVATIONS STATION/POSITION TIME TEMP WIND PRES WAVE SWELL AIR SEA DIR/SP/G HT/PER HT/PER (UTC) (F) (DEG/KT/KT) (MB) (FT/S) (FT/S) CHESAPEAKE LIGHT 2100 78 CALM / 1 1017.7 64 E VA BEACH 2050 78 80 360/ 4/ 6 1016.6 2/ 8 2/ 8 DUCK 2100 81 79 70/ 3/ 4 1016.3 2 E DUCK 2011 81 N/A 2/11 OREGON INLET 2100 80 80 20/ 4/ 9 1017.0 13E OREGON INLT 2100 80 N/A 2/ 7 HATTERAS CG 2100 81 81 330/ 5/ 6 1017.0 DIAMOND BUOY 2050 80 84 360/ 8/ 10 1017.1 2/ 9 2/ 9 CAPE LOOKOUT 2100 81 230/ 8/ 10 1016.9 BEAUFORT LAB 2100 83 80 210/ 6/ 8 1016.5 30 SE NEW RVR IN 2008 80 83 260/ 6/ 8 1018.3 30 SE NEW RVR IN 2025 83 N/A 3/ 7 27 SE WRIGHTSVLE 2000 77 83 200/ 2/ 4 N/A 5 SE WRIGHTSVLE 2008 81 84 180/ 6/ 8 1018.1 225 S CAPE HAT 2050 85 85 240/ 6/ 8 1018.0 3/ 6 3/ 6 41 SE CHARLESTON 2050 82 83 80/ 6/ 6 1018.3 2/ 7 2/ 7 $$

USA.gov is the U.S. government's official web portal to all federal, state and local government web resources and services.